[[{"header":{"parameterUnit":"m.s-1","parameterCategory":2,"la1":30.2991,"la2":30.254,"lo1":-89.0895,"lo2":-89.0444,"dy":0.0017,"dx":0.0017,"nx":28,"ny":28,"refTime":"2023-11-17T09:00:00:Z","depth":"0","parameterNumber":2,"parameterNumberName":"U-component_of_CURRENTS"},"data":[0,0,0,0,0,0,0,0,0,0,0,0,0,0,0,0,0,0,0,0,0,0,0,0,0,0,0,0,0,0,0,0,0,0,0,0,0,0,0,0,0,0,0,0,0,0,0,0,0,0,0,0,0,0,0,0,0,0,0.4495,0.4495,0,0.4504,0.4504,0.4504,0.4486,0.4486,0.4485,0.4485,0.4467,0.4467,0.4467,0,0,0,0,0,0,0,0,0,0,0,0,0,0.4473,0.4474,0.4495,0.4495,0.4495,0.4504,0.4504,0.4504,0.4486,0.4486,0.4485,0.4484,0.4467,0.4467,0.4467,0,0,0,0,0,0,0,0,0,0,0,0,0,0.4482,0.4474,0.4495,0.4488,0.4488,0.4504,0.4504,0.4504,0.4486,0.4486,0.4485,0.4484,0.4467,0.4467,0.4467,0.4482,0,0,0.4467,0.4467,0,0,0,0,0,0,0,0,0.4481,0.4482,0.4489,0.4489,0.4488,0.4494,0.449,0.4496,0.4486,0.4486,0.4485,0.4484,0.4475,0.4474,0.4477,0.4481,0.448,0.4467,0.4467,0.4467,0.4467,0,0,0,0,0,0,0,0.4481,0.4482,0.4497,0.4489,0.4489,0.4489,0.4489,0.4491,0.4483,0.4486,0.4485,0.4488,0.4474,0.4477,0.4476,0.448,0.4467,0.4467,0.4467,0.4467,0.4556,0.4559,0,0,0,0,0,0,0.4482,0.4481,0.4497,0.4498,0.4484,0.449,0.449,0.4492,0.4483,0.4482,0.4488,0.4487,0.4477,0.4476,0.4475,0.4537,0.4467,0.4467,0.4467,0.4554,0.4557,0.4559,0,0,0,0,0,0,0.4481,0.4483,0.4496,0.4491,0.4492,0.4491,0.4494,0.4493,0.4505,0.4486,0.4484,0.4503,0.4476,0.4475,0.4513,0.4534,0.4467,0.4467,0.4551,0.4555,0.4558,0.4631,0,0,0,0,0,0,0.4481,0.4483,0.4495,0.4491,0.4493,0.4521,0.4494,0.4493,0.4508,0.4506,0.4498,0.4495,0.4476,0.4513,0.4513,0.4533,0.4467,0.4548,0.4553,0.4557,0.4626,0.4637,0.4646,0,0,0,0,0,0.448,0.4505,0.4496,0.4498,0.4506,0.4522,0.4524,0.4519,0.451,0.4525,0.4535,0.4495,0.454,0.4516,0.4514,0.4535,0.4546,0.4552,0.4557,0.4621,0.4635,0.4646,0,0,0,0,0,0,0.4495,0.4505,0.4495,0.4518,0.4524,0.452,0.4533,0.4532,0.455,0.4548,0.4531,0.453,0.4574,0.4553,0.4526,0.4578,0.4535,0.454,0.4584,0.4597,0.4607,0.4628,0.4467,0,0,0,0,0,0.4505,0.4525,0.4527,0.4542,0.4546,0.4541,0.455,0.4547,0.4558,0.4564,0.4563,0.4569,0.4594,0.4594,0.461,0.4634,0.4628,0.4647,0.4658,0.4666,0.4686,0.4731,0.4747,0.4577,0.4577,0.4577,0,0,0.4491,0.452,0.4514,0.4548,0.4544,0.456,0.4544,0.456,0.4585,0.456,0.4598,0.4611,0.4615,0.4653,0.4667,0.4634,0.4705,0.4673,0.468,0.4695,0.4738,0.4754,0.4769,0.4581,0.458,0.4579,0,0,0.4497,0.4519,0.4534,0.455,0.4572,0.4584,0.4594,0.4602,0.4619,0.4657,0.466,0.4702,0.4708,0.4734,0.4743,0.4822,0.4771,0.4809,0.4861,0.4904,0.4918,0.493,0.4911,0.4922,0.4799,0.4799,0.4799,0,0.4483,0.4506,0.4539,0.4567,0.4575,0.4597,0.4604,0.4641,0.4666,0.4693,0.4677,0.475,0.4753,0.4823,0.4853,0.4845,0.4837,0.4807,0.4917,0.4929,0.4941,0.4918,0.4929,0.4803,0.4802,0.4802,0.4802,0,0.449,0.4512,0.4525,0.4567,0.4597,0.4605,0.4652,0.4696,0.4718,0.4747,0.4825,0.4853,0.4891,0.4901,0.49,0.4987,0.4942,0.4934,0.4881,0.4962,0.4933,0.4942,0.4809,0.4807,0.4806,0.4805,0,0,0.441,0.4506,0.45,0.4522,0.4589,0.4608,0.4682,0.4744,0.479,0.4845,0.49,0.498,0.5,0.5016,0.5027,0.5068,0.5136,0.5036,0.5036,0.5008,0.5187,0.5119,0.5122,0.5142,0.5145,0.5148,0.5121,0,0.4381,0.4438,0.4495,0.4526,0.4546,0.4612,0.4678,0.4755,0.4817,0.4888,0.4964,0.502,0.5042,0.5055,0.5118,0.5142,0.517,0.5141,0.5121,0.5119,0.5045,0.5136,0.4989,0.4952,0.513,0.5131,0.5132,0,0.4337,0.4396,0.4429,0.4515,0.4525,0.4564,0.4665,0.473,0.4864,0.491,0.5007,0.5055,0.5162,0.5147,0.5251,0.5228,0.5223,0.5229,0.5227,0.5152,0.5073,0.4908,0.4962,0.4864,0.5146,0.5145,0.5144,0,0.4254,0.433,0.4366,0.4387,0.4503,0.4539,0.4604,0.4732,0.4797,0.4931,0.4982,0.5106,0.5168,0.5221,0.5275,0.5255,0.5357,0.5317,0.5244,0.5235,0.5104,0.508,0.5059,0.5378,0.5379,0.5379,0.5379,0,0.4194,0.4212,0.4333,0.4347,0.4394,0.4494,0.456,0.4647,0.4777,0.4865,0.4992,0.5072,0.5198,0.5275,0.529,0.5314,0.5372,0.5278,0.525,0.512,0.51,0.5002,0.4971,0.5377,0.5378,0.5378,0.5378,0,0.4102,0.417,0.4215,0.4328,0.4358,0.4397,0.4518,0.4576,0.4715,0.4832,0.4876,0.5064,0.5169,0.5259,0.5337,0.5326,0.5205,0.5323,0.5139,0.5092,0.4905,0.4884,0.4655,0.4516,0.5217,0.5215,0.5214,0,0.4068,0.4094,0.4184,0.4206,0.4255,0.4331,0.4381,0.4522,0.459,0.4823,0.4867,0.5028,0.5119,0.5219,0.5242,0.5243,0.5125,0.5081,0.5036,0.4901,0.4856,0.4669,0.4555,0.4863,0.4859,0.4856,0.4853,0,0.4026,0.4059,0.4095,0.4138,0.4178,0.4231,0.4316,0.4353,0.4543,0.4619,0.4754,0.4847,0.5021,0.4994,0.5047,0.5035,0.4862,0.5011,0.4937,0.4649,0.4379,0.4227,0.4836,0.4824,0.4827,0.4829,0.4831,0.4832,0.3985,0.3986,0.4033,0.4047,0.4084,0.411,0.4073,0.4177,0.4227,0.4299,0.4533,0.458,0.4752,0.4814,0.4769,0.4662,0.4642,0.4552,0.4552,0.4383,0.4211,0.4739,0.4666,0.4667,0.4669,0.4671,0.4672,0,0.3913,0.3919,0.3946,0.3923,0.388,0.3961,0.3993,0.3913,0.3859,0.4033,0.4085,0.4242,0.4254,0.4357,0.44,0.4265,0.4044,0.4152,0.388,0.3802,0.4339,0.4293,0.4057,0.4057,0.4057,0.4057,0.4057,0.4057,0.3876,0.3836,0.3824,0.3709,0.3687,0.3547,0.3506,0.3432,0.3472,0.3462,0.3524,0.3692,0.4042,0.4198,0.4109,0.3996,0.3699,0.3529,0.3503,0.3948,0.3984,0.402,0.3969,0.3669,0.3669,0.2801,0.2795,0.279]},{"header":{"parameterUnit":"m.s-1","parameterCategory":2,"la1":30.2991,"la2":30.254,"lo1":-89.0895,"lo2":-89.0444,"dy":0.0017,"dx":0.0017,"nx":28,"ny":28,"refTime":"2023-11-17T09:00:00:Z","depth":"0","parameterNumber":3,"parameterNumberName":"V-component_of_CURRENTS"},"data":[0,0,0,0,0,0,0,0,0,0,0,0,0,0,0,0,0,0,0,0,0,0,0,0,0,0,0,0,0,0,0,0,0,0,0,0,0,0,0,0,0,0,0,0,0,0,0,0,0,0,0,0,0,0,0,0,0,0,-0.017,-0.0171,0,-0.0247,-0.0248,-0.025,-0.0308,-0.0308,-0.0308,-0.0308,-0.0436,-0.044,-0.0443,0,0,0,0,0,0,0,0,0,0,0,0,0,-0.0156,-0.0156,-0.017,-0.0171,-0.0171,-0.0247,-0.0248,-0.025,-0.0308,-0.0308,-0.0308,-0.0308,-0.0435,-0.0439,-0.0443,0,0,0,0,0,0,0,0,0,0,0,0,0,-0.0196,-0.0156,-0.017,-0.0205,-0.0208,-0.0246,-0.0248,-0.025,-0.0308,-0.0308,-0.0308,-0.0308,-0.0434,-0.0439,-0.0444,-0.0476,0,0,-0.046,-0.0462,0,0,0,0,0,0,0,0,-0.0194,-0.0197,-0.0199,-0.0202,-0.0206,-0.0263,-0.029,-0.0327,-0.0308,-0.0276,-0.0308,-0.0308,-0.0379,-0.0389,-0.0411,-0.0482,-0.0488,-0.046,-0.0463,-0.0466,-0.0467,0,0,0,0,0,0,0,-0.0191,-0.0195,-0.0207,-0.0199,-0.0204,-0.0244,-0.025,-0.0298,-0.0333,-0.0279,-0.0282,-0.0281,-0.0382,-0.0406,-0.0415,-0.049,-0.046,-0.0465,-0.0468,-0.047,-0.0567,-0.0566,0,0,0,0,0,0,-0.0165,-0.0191,-0.0204,-0.0208,-0.0193,-0.0244,-0.025,-0.0249,-0.0331,-0.0341,-0.0281,-0.0283,-0.0397,-0.0409,-0.0419,-0.0423,-0.0466,-0.047,-0.0473,-0.0567,-0.0566,-0.0566,0,0,0,0,0,0,-0.0164,-0.0165,-0.0201,-0.0197,-0.0204,-0.0243,-0.0242,-0.0251,-0.0266,-0.0331,-0.0343,-0.0285,-0.0398,-0.0412,-0.0453,-0.043,-0.0473,-0.0477,-0.0568,-0.0567,-0.0566,-0.0455,0,0,0,0,0,0,-0.0164,-0.0165,-0.0166,-0.0195,-0.0203,-0.0211,-0.0242,-0.0252,-0.0263,-0.0267,-0.0339,-0.0351,-0.0399,-0.0445,-0.0458,-0.0438,-0.0481,-0.0568,-0.0567,-0.0566,-0.046,-0.0451,-0.0443,0,0,0,0,0,-0.0163,-0.0156,-0.0166,-0.0168,-0.02,-0.0209,-0.0218,-0.025,-0.0263,-0.0265,-0.0313,-0.0348,-0.0447,-0.0449,-0.0464,-0.0445,-0.0569,-0.0568,-0.0566,-0.0463,-0.0453,-0.0444,0,0,0,0,0,0,-0.0148,-0.0162,-0.0173,-0.0171,-0.0182,-0.0217,-0.0219,-0.024,-0.0282,-0.0285,-0.035,-0.0366,-0.0393,-0.0437,-0.0436,-0.047,-0.0511,-0.0513,-0.0427,-0.0418,-0.041,-0.0373,-0.0486,0,0,0,0,0,-0.0144,-0.0142,-0.016,-0.0155,-0.0155,-0.0185,-0.0196,-0.0214,-0.0246,-0.0264,-0.0312,-0.0362,-0.0403,-0.0423,-0.0472,-0.0492,-0.0523,-0.0489,-0.048,-0.0473,-0.0454,-0.0483,-0.0475,-0.0562,-0.0562,-0.0562,0,0,-0.0129,-0.0141,-0.0137,-0.0152,-0.0162,-0.0147,-0.0192,-0.0193,-0.0182,-0.0272,-0.028,-0.034,-0.0404,-0.0427,-0.0441,-0.0457,-0.0466,-0.0472,-0.0465,-0.0449,-0.0481,-0.0472,-0.0465,-0.0561,-0.0561,-0.0561,0,0,-0.0088,-0.0111,-0.0088,-0.0092,-0.01,-0.012,-0.0112,-0.0139,-0.0153,-0.0176,-0.023,-0.027,-0.0339,-0.0371,-0.0398,-0.0375,-0.0426,-0.0392,-0.0315,-0.0344,-0.0336,-0.033,-0.0355,-0.0352,-0.0382,-0.0381,-0.0381,0,-0.0072,-0.0044,-0.0083,-0.0057,-0.0045,-0.0095,-0.0056,-0.0079,-0.0119,-0.0119,-0.0162,-0.0245,-0.0307,-0.0315,-0.0312,-0.0353,-0.0378,-0.0344,-0.033,-0.0325,-0.0321,-0.0348,-0.0346,-0.0376,-0.0377,-0.0377,-0.0378,0,0.0001,0.0016,0.0034,0.0051,0.0049,0.0074,0.0051,0.0043,0.0012,-0.0013,-0.0039,-0.013,-0.0172,-0.0202,-0.0254,-0.0246,-0.0278,-0.0319,-0.0348,-0.0305,-0.0337,-0.0337,-0.0368,-0.037,-0.0372,-0.0373,0,0,0.007,0.0082,0.0095,0.0122,0.0113,0.0129,0.0145,0.0154,0.0188,0.0112,0.0143,0.0045,-0.0008,-0.0041,-0.0112,-0.0143,-0.0148,-0.0209,-0.0213,-0.022,-0.0205,-0.0225,-0.0228,-0.0186,-0.0186,-0.0185,-0.0239,0,0.0149,0.0218,0.02,0.0274,0.0311,0.0275,0.0304,0.0297,0.0273,0.0282,0.0188,0.0171,0.0057,0.004,-0.0009,-0.0107,-0.0143,-0.0129,-0.0258,-0.0261,-0.0273,-0.0227,-0.0193,-0.0237,-0.0239,-0.0239,-0.0239,0,0.0242,0.0274,0.0359,0.0397,0.0415,0.0448,0.0497,0.0514,0.05,0.048,0.0435,0.0353,0.0293,0.0186,0.0047,0.0062,-0.0059,-0.0147,-0.0152,-0.0205,-0.0281,-0.0284,-0.0237,-0.0477,-0.024,-0.024,-0.024,0,0.0331,0.0389,0.0461,0.0478,0.0511,0.0552,0.0573,0.0582,0.0627,0.0611,0.0638,0.0527,0.0497,0.0331,0.0125,0.0091,-0.0024,-0.0098,-0.0231,-0.0235,-0.0247,-0.0252,-0.0433,-0.0195,-0.0195,-0.0195,-0.0195,0,0.0423,0.0483,0.0514,0.0561,0.0667,0.0651,0.0761,0.0766,0.0801,0.0889,0.0751,0.0792,0.0532,0.042,0.0203,0.0004,0.003,-0.0198,-0.0241,-0.0209,-0.021,-0.0454,-0.0587,-0.0197,-0.0197,-0.0196,-0.0196,0,0.0505,0.0524,0.0615,0.0678,0.0712,0.0789,0.0887,0.0964,0.098,0.1095,0.1096,0.1005,0.0862,0.0593,0.0342,0.0134,-0.0205,-0.0166,-0.0109,-0.0145,-0.0501,-0.0627,-0.0835,-0.0933,-0.0311,-0.0312,-0.0313,0,0.0545,0.0601,0.0712,0.0786,0.0824,0.0931,0.1015,0.1055,0.1153,0.1242,0.1317,0.1208,0.1167,0.0787,0.0391,0.0026,-0.0215,-0.019,-0.0262,-0.0497,-0.0671,-0.0767,-0.0842,-0.0239,-0.0239,-0.0239,-0.0239,0,0.063,0.0673,0.0757,0.0907,0.1015,0.1138,0.1268,0.1373,0.1453,0.1556,0.1668,0.1639,0.1281,0.0923,0.0411,0.0151,-0.0342,-0.0201,-0.0457,-0.0629,-0.0731,-0.0852,-0.0237,-0.0238,-0.0238,-0.0238,-0.0238,-0.0238,0.0701,0.0777,0.0896,0.104,0.1167,0.1337,0.146,0.1608,0.1788,0.1956,0.1923,0.1939,0.1424,0.073,0.0336,-0.0349,-0.0374,-0.0567,-0.0699,-0.0775,-0.0876,-0.0255,-0.0303,-0.0303,-0.0304,-0.0304,-0.0304,0,0.0791,0.0882,0.1017,0.1197,0.1345,0.1397,0.1622,0.1754,0.1982,0.2136,0.2215,0.2006,0.1353,0.0692,-0.0239,-0.0754,-0.093,-0.1035,-0.1177,-0.1229,-0.0682,-0.0687,-0.0803,-0.0803,-0.0803,-0.0802,-0.0802,-0.0802,0.0847,0.0992,0.1059,0.1317,0.1443,0.1646,0.1779,0.1978,0.2137,0.2328,0.2365,0.2348,0.187,0.0172,-0.1001,-0.1268,-0.161,-0.1686,-0.1884,-0.1538,-0.1505,-0.1473,-0.1511,-0.1798,-0.18,-0.235,-0.2355,-0.236]}],[{"header":{"parameterUnit":"m.s-1","parameterCategory":2,"la1":30.2991,"la2":30.254,"lo1":-89.0895,"lo2":-89.0444,"dy":0.0017,"dx":0.0017,"nx":28,"ny":28,"refTime":"2023-11-17T09:00:00:Z","depth":"2","parameterNumber":2,"parameterNumberName":"U-component_of_CURRENTS"},"data":[0,0,0,0,0,0,0,0,0,0,0,0,0,0,0,0,0,0,0,0,0,0,0,0,0,0,0,0,0,0,0,0,0,0,0,0,0,0,0,0,0,0,0,0,0,0,0,0,0,0,0,0,0,0,0,0,0,0,0.3627,0.3628,0,0.368,0.368,0.368,0.3689,0.3689,0.3689,0.3689,0.3696,0.3696,0.3696,0,0,0,0,0,0,0,0,0,0,0,0,0,0.3603,0.3602,0.3626,0.3628,0.3629,0.368,0.368,0.368,0.3689,0.3689,0.3689,0.3689,0.3696,0.3696,0.3696,0,0,0,0,0,0,0,0,0,0,0,0,0,0.3623,0.3602,0.3626,0.3645,0.3647,0.368,0.368,0.368,0.3689,0.3689,0.3689,0.369,0.3696,0.3696,0.3696,0.3692,0,0,0.3696,0.3696,0,0,0,0,0,0,0,0,0.3622,0.3623,0.3641,0.3643,0.3647,0.3684,0.3675,0.3684,0.3689,0.3666,0.3689,0.369,0.3692,0.3692,0.3693,0.3692,0.3692,0.3696,0.3696,0.3696,0.3696,0,0,0,0,0,0,0,0.3621,0.3622,0.3641,0.3642,0.3646,0.3675,0.3677,0.3676,0.3671,0.3668,0.367,0.3687,0.3692,0.3693,0.3693,0.3692,0.3696,0.3696,0.3696,0.3697,0.3802,0.3804,0,0,0,0,0,0,0.3624,0.362,0.3639,0.3643,0.3642,0.3675,0.3677,0.3666,0.3672,0.3675,0.3687,0.3687,0.3693,0.3693,0.3693,0.3774,0.3696,0.3697,0.3697,0.3799,0.3802,0.3805,0,0,0,0,0,0,0.3622,0.3623,0.3637,0.364,0.3645,0.3676,0.3663,0.3667,0.3694,0.3688,0.3689,0.3713,0.3693,0.3693,0.3708,0.3771,0.3697,0.3697,0.3796,0.38,0.3804,0.388,0,0,0,0,0,0,0.3621,0.3622,0.3626,0.3639,0.3645,0.366,0.3664,0.3668,0.3705,0.3707,0.3711,0.371,0.3693,0.3708,0.3708,0.377,0.3697,0.3792,0.3797,0.3802,0.3874,0.3886,0.3896,0,0,0,0,0,0.3619,0.3612,0.3624,0.3628,0.3644,0.3661,0.3665,0.3685,0.3707,0.3711,0.3721,0.3711,0.3742,0.3708,0.3708,0.3772,0.379,0.3796,0.3802,0.3869,0.3883,0.3896,0,0,0,0,0,0,0.3583,0.3614,0.3627,0.3624,0.3649,0.3665,0.3688,0.3704,0.3716,0.3733,0.3721,0.372,0.3767,0.3756,0.372,0.3822,0.3776,0.3782,0.3827,0.3841,0.3852,0.3856,0.3697,0,0,0,0,0,0.3583,0.3593,0.3623,0.3619,0.3646,0.3676,0.3695,0.371,0.3724,0.3733,0.3741,0.3763,0.3789,0.3801,0.3813,0.385,0.3849,0.3902,0.3913,0.3923,0.393,0.3974,0.399,0.3826,0.3826,0.3825,0,0,0.3583,0.3588,0.3604,0.3616,0.3647,0.3687,0.3686,0.3724,0.3761,0.3731,0.3785,0.3797,0.3808,0.3855,0.3879,0.3855,0.3972,0.3931,0.3938,0.394,0.3982,0.3998,0.4012,0.383,0.3829,0.3828,0,0,0.3576,0.3585,0.3608,0.3638,0.3686,0.3704,0.3724,0.3767,0.3795,0.3836,0.3845,0.3889,0.3916,0.3943,0.3959,0.4043,0.4029,0.4064,0.4123,0.4167,0.418,0.4191,0.4214,0.4227,0.4071,0.4071,0.4071,0,0.3574,0.3583,0.3616,0.3649,0.3678,0.3721,0.3758,0.3799,0.3837,0.3869,0.3866,0.3951,0.3965,0.4034,0.4074,0.407,0.4078,0.4064,0.418,0.4191,0.4202,0.4221,0.4235,0.4075,0.4075,0.4075,0.4074,0,0.359,0.3615,0.3633,0.3688,0.3726,0.3755,0.3826,0.3873,0.3918,0.3958,0.4039,0.4056,0.4108,0.4138,0.4131,0.4229,0.4205,0.4185,0.4138,0.4222,0.4238,0.4251,0.4082,0.408,0.4079,0.4078,0,0,0.3538,0.3625,0.3638,0.3666,0.3745,0.3768,0.3859,0.3929,0.3992,0.4056,0.4126,0.4204,0.4229,0.4251,0.4263,0.4307,0.44,0.4286,0.4286,0.4295,0.4485,0.4415,0.4421,0.4395,0.4397,0.4399,0.4466,0,0.3537,0.3582,0.3637,0.37,0.3733,0.3812,0.3887,0.3972,0.4038,0.4121,0.4192,0.4263,0.427,0.4304,0.4358,0.4391,0.4436,0.4383,0.4412,0.4413,0.4331,0.4435,0.4101,0.4128,0.4478,0.448,0.4481,0,0.3532,0.3557,0.3612,0.3694,0.3725,0.3782,0.3891,0.3968,0.4111,0.417,0.4265,0.4316,0.4426,0.4402,0.4514,0.4479,0.4498,0.451,0.4512,0.4427,0.4367,0.4102,0.4136,0.4501,0.45,0.4498,0.4497,0,0.3456,0.3535,0.3562,0.3595,0.3711,0.3767,0.3843,0.3986,0.4062,0.4211,0.4278,0.4393,0.4474,0.4521,0.459,0.4557,0.4686,0.4636,0.4585,0.4579,0.429,0.4255,0.4705,0.4704,0.4704,0.4704,0.4704,0,0.3408,0.3436,0.3533,0.3561,0.3618,0.3728,0.3813,0.3926,0.4074,0.4171,0.4305,0.4388,0.4512,0.4603,0.4622,0.4662,0.4723,0.4618,0.4605,0.4309,0.4276,0.459,0.4575,0.4707,0.4706,0.4706,0.4705,0,0.3335,0.3392,0.3428,0.3545,0.3591,0.364,0.3796,0.3863,0.4026,0.4154,0.4213,0.4421,0.4546,0.4638,0.4734,0.4711,0.4739,0.4728,0.4374,0.4318,0.4584,0.4574,0.4667,0.4665,0.4664,0.4662,0.4661,0,0.3311,0.3303,0.3412,0.3441,0.3501,0.3585,0.3661,0.3829,0.3908,0.4156,0.4219,0.441,0.4511,0.4648,0.4646,0.4668,0.4735,0.4352,0.4232,0.461,0.4588,0.4579,0.4571,0.3876,0.3868,0.3862,0.3858,0,0.3242,0.3268,0.3326,0.3381,0.3446,0.3484,0.3608,0.3654,0.3859,0.3971,0.4133,0.4238,0.4418,0.4316,0.4387,0.4347,0.4322,0.4232,0.4727,0.395,0.3873,0.3849,0.3864,0.3804,0.381,0.3813,0.3816,0.3818,0.321,0.321,0.3277,0.3303,0.3367,0.3376,0.3358,0.3482,0.3568,0.3697,0.3912,0.3952,0.4042,0.398,0.3877,0.3805,0.4095,0.3893,0.3907,0.3929,0.3839,0.3765,0.3658,0.3662,0.3666,0.3669,0.3672,0,0.3131,0.3145,0.3186,0.3201,0.3184,0.3263,0.3311,0.3251,0.3266,0.3435,0.353,0.3312,0.329,0.3359,0.3187,0.3213,0.3139,0.3062,0.2923,0.2982,0.3034,0.2891,0.2462,0.2458,0.2453,0.2449,0,0,0.3097,0.3084,0.3075,0.2998,0.3012,0.2924,0.2898,0.2861,0.2907,0.2876,0.288,0.3145,0.3284,0.2815,0.2782,0.2581,0.2743,0.2483,0.347,0.3367,0.3411,0.3553,0.3409,0,0,0,0,0]},{"header":{"parameterUnit":"m.s-1","parameterCategory":2,"la1":30.2991,"la2":30.254,"lo1":-89.0895,"lo2":-89.0444,"dy":0.0017,"dx":0.0017,"nx":28,"ny":28,"refTime":"2023-11-17T09:00:00:Z","depth":"2","parameterNumber":3,"parameterNumberName":"V-component_of_CURRENTS"},"data":[0,0,0,0,0,0,0,0,0,0,0,0,0,0,0,0,0,0,0,0,0,0,0,0,0,0,0,0,0,0,0,0,0,0,0,0,0,0,0,0,0,0,0,0,0,0,0,0,0,0,0,0,0,0,0,0,0,0,0.0195,0.0194,0,0.0111,0.011,0.0109,0.005,0.0049,0.0049,0.0049,-0.0066,-0.0069,-0.0072,0,0,0,0,0,0,0,0,0,0,0,0,0,0.0213,0.0213,0.0195,0.0194,0.0193,0.0111,0.011,0.0109,0.005,0.0049,0.0049,0.0049,-0.0065,-0.0068,-0.0072,0,0,0,0,0,0,0,0,0,0,0,0,0,0.0173,0.0213,0.0195,0.0155,0.0151,0.0112,0.011,0.0108,0.005,0.0049,0.0049,0.0048,-0.0064,-0.0068,-0.0072,-0.0089,0,0,-0.0085,-0.0087,0,0,0,0,0,0,0,0,0.0176,0.0172,0.0162,0.0158,0.0153,0.0092,0.0074,0.0041,0.005,0.0086,0.0049,0.0048,-0.0014,-0.0023,-0.004,-0.0095,-0.01,-0.0085,-0.0088,-0.009,-0.0091,0,0,0,0,0,0,0,0.0178,0.0175,0.016,0.0161,0.0156,0.0111,0.0105,0.0067,0.0037,0.0083,0.0079,0.0073,-0.0017,-0.0036,-0.0043,-0.0101,-0.0085,-0.0089,-0.0092,-0.0093,-0.0177,-0.0177,0,0,0,0,0,0,0.0198,0.0178,0.0162,0.0157,0.0166,0.0111,0.0105,0.0111,0.0038,0.0028,0.0073,0.0071,-0.0028,-0.0038,-0.0047,-0.0054,-0.009,-0.0094,-0.0096,-0.0178,-0.0177,-0.0177,0,0,0,0,0,0,0.0199,0.0198,0.0166,0.0166,0.016,0.0112,0.0118,0.0109,0.0093,0.0032,0.002,0.0067,-0.0029,-0.0041,-0.0065,-0.0059,-0.0095,-0.0099,-0.0178,-0.0178,-0.0177,-0.0078,0,0,0,0,0,0,0.02,0.0199,0.0207,0.0169,0.016,0.0157,0.0119,0.0108,0.0091,0.0086,0.0022,0.0011,-0.003,-0.0058,-0.0069,-0.0066,-0.0103,-0.0178,-0.0178,-0.0177,-0.0081,-0.0074,-0.0068,0,0,0,0,0,0.0201,0.0224,0.0209,0.0206,0.0175,0.0158,0.015,0.0112,0.0091,0.0093,0.0054,0.0013,-0.0064,-0.0061,-0.0074,-0.0071,-0.0179,-0.0178,-0.0177,-0.0085,-0.0076,-0.0068,0,0,0,0,0,0,0.024,0.0219,0.0201,0.0217,0.0194,0.0149,0.0145,0.0119,0.0088,0.0082,0.0023,0.001,-0.0012,-0.0054,-0.0049,-0.0096,-0.0131,-0.0133,-0.0056,-0.0048,-0.0042,-0.0009,-0.0106,0,0,0,0,0,0.0253,0.0265,0.0231,0.0245,0.0233,0.0189,0.0175,0.0152,0.0121,0.0106,0.0061,0.0013,-0.0021,-0.0041,-0.0081,-0.0101,-0.014,-0.0112,-0.0105,-0.0098,-0.0082,-0.0129,-0.0124,-0.0175,-0.0175,-0.0175,0,0,0.0266,0.0263,0.0264,0.0254,0.0228,0.0228,0.018,0.0169,0.0173,0.0098,0.0087,0.0037,-0.002,-0.0041,-0.0056,-0.0074,-0.0106,-0.0098,-0.0091,-0.0078,-0.0128,-0.0123,-0.0118,-0.0175,-0.0175,-0.0175,0,0,0.0311,0.0301,0.032,0.0308,0.0285,0.0261,0.0263,0.022,0.0203,0.0185,0.0135,0.0099,0.0037,0.0005,-0.0021,-0.0,-0.0067,-0.0026,0.0034,-0.0011,-0.0007,-0.0004,-0.0047,-0.0048,-0.0024,-0.0023,-0.0023,0,0.0328,0.0356,0.0322,0.034,0.034,0.0283,0.0303,0.028,0.0237,0.0233,0.0195,0.0115,0.0062,0.0049,0.0052,0.0017,-0.0021,0.0012,-0.0,0.0002,0.0004,-0.0042,-0.0044,-0.0018,-0.0019,-0.002,-0.002,0,0.0387,0.0402,0.0414,0.042,0.0415,0.0425,0.0391,0.0382,0.0347,0.0317,0.0289,0.0215,0.017,0.0139,0.01,0.0088,0.0053,0.0017,-0.0014,0.0015,-0.0035,-0.004,-0.0011,-0.0013,-0.0015,-0.0016,0,0,0.044,0.0453,0.0456,0.0478,0.0461,0.0471,0.0478,0.0474,0.0492,0.0422,0.0433,0.0354,0.0303,0.0271,0.0209,0.0165,0.0135,0.0103,0.0098,0.0073,0.0035,0.0009,0.0001,0.0095,0.0094,0.0094,-0.0005,0,0.0495,0.0556,0.0542,0.0594,0.0618,0.0583,0.0603,0.0589,0.0561,0.0554,0.0468,0.0445,0.0357,0.0337,0.028,0.0176,0.0128,0.0166,-0.0001,-0.0006,-0.0022,-0.0004,0.0032,-0.0053,-0.001,-0.0011,-0.0011,0,0.0556,0.0594,0.066,0.0697,0.0703,0.0728,0.076,0.0769,0.074,0.0714,0.0664,0.0589,0.052,0.0436,0.0276,0.0303,0.0183,0.0092,0.0085,0.0027,-0.0039,-0.0078,-0.0064,-0.002,-0.0019,-0.0018,-0.0018,0,0.0627,0.0674,0.074,0.0752,0.0783,0.0814,0.0828,0.0822,0.0854,0.0819,0.0828,0.0715,0.0674,0.0509,0.0311,0.0292,0.013,0.0076,-0.0061,-0.0065,-0.0083,-0.0087,-0.0035,-0.0035,-0.0035,-0.0035,-0.0035,0,0.0697,0.0746,0.0785,0.0824,0.0912,0.0899,0.0984,0.0977,0.099,0.1048,0.092,0.0934,0.069,0.0562,0.036,0.0144,0.0161,-0.0039,-0.0087,-0.0049,-0.0049,-0.0059,-0.0061,-0.0039,-0.0038,-0.0037,-0.0036,0,0.0758,0.0782,0.0865,0.0923,0.0951,0.1015,0.1093,0.115,0.1146,0.1219,0.1214,0.1101,0.0934,0.068,0.0418,0.0228,0.0009,-0.0075,-0.0012,-0.005,-0.017,-0.0165,-0.0236,-0.0237,-0.0239,-0.024,-0.0241,0,0.0793,0.0853,0.0945,0.1009,0.1042,0.1136,0.1204,0.1228,0.1301,0.1333,0.1379,0.1242,0.117,0.0769,0.0405,0.0052,0.0005,-0.0146,-0.0179,-0.0148,-0.0188,-0.0182,-0.0175,-0.0171,-0.0172,-0.0172,-0.0172,0,0.0876,0.0912,0.0976,0.1107,0.1199,0.1308,0.1411,0.1492,0.1541,0.16,0.1645,0.1588,0.1217,0.0863,0.0379,0.014,-0.0091,-0.0163,-0.0144,-0.012,-0.0094,-0.0131,-0.0126,-0.0174,-0.0174,-0.0174,-0.0174,-0.0174,0.0935,0.0995,0.1087,0.1211,0.1321,0.1463,0.1563,0.1679,0.1807,0.1895,0.184,0.1759,0.137,0.0744,0.0322,-0.0125,-0.01,-0.0254,-0.025,-0.0247,-0.0216,-0.0193,-0.0286,-0.0287,-0.0287,-0.0287,-0.0288,0,0.1007,0.1077,0.1188,0.1331,0.1454,0.1506,0.1687,0.1785,0.1944,0.2015,0.2039,0.1666,0.1269,0.0807,0.015,-0.0231,-0.0262,-0.0357,-0.0305,-0.0299,-0.0294,-0.0265,-0.0349,-0.0351,-0.0352,-0.0354,0,0,0.1048,0.1157,0.1205,0.1413,0.1519,0.1689,0.1795,0.1937,0.2029,0.2092,0.2046,0.1952,0.1409,0.0927,0.0404,0.0022,-0.0054,-0.0057,0.0039,0.0169,0.0178,-0.0185,-0.0127,0,0,0,0,0]}],[{"header":{"parameterUnit":"m.s-1","parameterCategory":2,"la1":30.2991,"la2":30.254,"lo1":-89.0895,"lo2":-89.0444,"dy":0.0017,"dx":0.0017,"nx":28,"ny":28,"refTime":"2023-11-17T09:00:00:Z","depth":"4","parameterNumber":2,"parameterNumberName":"U-component_of_CURRENTS"},"data":[0,0,0,0,0,0,0,0,0,0,0,0,0,0,0,0,0,0,0,0,0,0,0,0,0,0,0,0,0,0,0,0,0,0,0,0,0,0,0,0,0,0,0,0,0,0,0,0,0,0,0,0,0,0,0,0,0,0,0.2068,0.2069,0,0.2169,0.2169,0.217,0.2247,0.2248,0.2249,0.225,0.2364,0.2366,0.2368,0,0,0,0,0,0,0,0,0,0,0,0,0,0.1942,0.1943,0.2067,0.2069,0.2071,0.2168,0.2169,0.217,0.2247,0.2248,0.2249,0.2251,0.2363,0.2366,0.2368,0,0,0,0,0,0,0,0,0,0,0,0,0,0.201,0.1943,0.2067,0.2125,0.2131,0.2168,0.2169,0.217,0.2246,0.2248,0.225,0.2252,0.2363,0.2366,0.2368,0.2351,0,0,0.2377,0.2378,0,0,0,0,0,0,0,0,0.2006,0.2014,0.2114,0.2121,0.2128,0.2202,0.2167,0.2233,0.2246,0.2197,0.225,0.2252,0.2313,0.232,0.2327,0.2356,0.2361,0.2377,0.2379,0.238,0.2381,0,0,0,0,0,0,0,0.2001,0.201,0.2102,0.2116,0.2125,0.2146,0.2157,0.2179,0.224,0.2201,0.2209,0.2228,0.2316,0.2324,0.2331,0.2362,0.2377,0.238,0.2382,0.2383,0.2534,0.2537,0,0,0,0,0,0,0.1997,0.2005,0.2099,0.2106,0.2076,0.2147,0.2159,0.2172,0.224,0.2253,0.2226,0.2231,0.2319,0.2327,0.2335,0.2461,0.238,0.2383,0.2385,0.2532,0.2535,0.2537,0,0,0,0,0,0,0.1994,0.2004,0.2095,0.2062,0.2076,0.2148,0.2161,0.2173,0.2234,0.2259,0.2272,0.2282,0.232,0.2331,0.2408,0.246,0.2384,0.2387,0.2529,0.2533,0.2536,0.262,0,0,0,0,0,0,0.1989,0.2002,0.2032,0.2062,0.2078,0.2148,0.216,0.2174,0.2243,0.2251,0.231,0.232,0.2323,0.2404,0.2411,0.2463,0.2389,0.2527,0.2531,0.2535,0.2614,0.2626,0.2636,0,0,0,0,0,0.1984,0.2007,0.2032,0.2045,0.2109,0.215,0.216,0.2213,0.2244,0.2274,0.2326,0.2321,0.2436,0.2408,0.2416,0.247,0.2524,0.253,0.2535,0.261,0.2624,0.2636,0,0,0,0,0,0,0.1963,0.2018,0.2046,0.2085,0.2132,0.2166,0.2208,0.224,0.2302,0.233,0.2348,0.2361,0.2446,0.2446,0.2415,0.2527,0.248,0.2487,0.2534,0.2547,0.2558,0.2564,0.2392,0,0,0,0,0,0.1973,0.2011,0.2059,0.2096,0.2125,0.2176,0.221,0.2248,0.2297,0.2329,0.2371,0.2419,0.2462,0.2499,0.2529,0.259,0.26,0.2631,0.2641,0.265,0.2662,0.2722,0.2739,0.2554,0.2554,0.2554,0,0,0.198,0.2013,0.204,0.2097,0.214,0.2188,0.2202,0.2268,0.232,0.2329,0.2426,0.2459,0.2487,0.2558,0.2596,0.2575,0.2711,0.2657,0.2665,0.2671,0.2729,0.2747,0.2763,0.2558,0.2557,0.2557,0,0,0.1995,0.2041,0.2079,0.2125,0.2201,0.2228,0.2259,0.2326,0.2375,0.2456,0.2482,0.2555,0.2616,0.2653,0.2675,0.2764,0.2762,0.2778,0.2844,0.2904,0.2919,0.2933,0.2975,0.2992,0.2787,0.2787,0.2787,0,0.2009,0.2053,0.2098,0.2146,0.2193,0.2252,0.2305,0.2356,0.2443,0.249,0.2503,0.263,0.266,0.2748,0.2788,0.279,0.2817,0.2792,0.2918,0.2931,0.2944,0.2984,0.3001,0.2792,0.2791,0.2791,0.2791,0,0.2042,0.21,0.2127,0.2207,0.226,0.2317,0.239,0.2461,0.2526,0.2574,0.269,0.2737,0.2815,0.2838,0.2846,0.2957,0.2945,0.292,0.2882,0.2968,0.3004,0.3021,0.2799,0.2797,0.2796,0.2794,0,0,0.2017,0.2129,0.2146,0.2196,0.2302,0.2341,0.2442,0.2533,0.2613,0.27,0.2798,0.2888,0.293,0.2959,0.2986,0.3044,0.3165,0.3035,0.3036,0.3073,0.3299,0.3083,0.308,0.3168,0.3171,0.3174,0.329,0,0.2036,0.2118,0.2178,0.2275,0.2326,0.2418,0.2499,0.2599,0.2688,0.2797,0.2873,0.2975,0.297,0.3035,0.3094,0.3155,0.3213,0.3136,0.3214,0.3216,0.3011,0.3093,0.3184,0.3302,0.3306,0.3309,0.3311,0,0.2048,0.2102,0.2192,0.2311,0.2345,0.2422,0.2567,0.2652,0.2807,0.2884,0.2999,0.3061,0.3192,0.3163,0.3308,0.3264,0.3297,0.3323,0.3327,0.3106,0.303,0.3199,0.334,0.3338,0.3336,0.3334,0.3332,0,0.1988,0.2112,0.218,0.2225,0.2367,0.2446,0.2537,0.2691,0.2777,0.2964,0.3054,0.3183,0.3289,0.3349,0.3422,0.3387,0.3553,0.3501,0.3332,0.3317,0.3439,0.3423,0.3592,0.3591,0.3591,0.3591,0.3591,0,0.1961,0.2025,0.217,0.2212,0.2309,0.2433,0.2562,0.2676,0.2849,0.2955,0.3108,0.3202,0.3348,0.345,0.3473,0.3457,0.36,0.3358,0.3336,0.3472,0.3458,0.3451,0.3433,0.3595,0.3594,0.3593,0.3593,0,0.1881,0.1977,0.2067,0.223,0.2286,0.2368,0.2563,0.2648,0.2841,0.2992,0.3063,0.3269,0.3394,0.3495,0.3614,0.3513,0.3523,0.3479,0.364,0.3624,0.3233,0.3219,0.3286,0.328,0.3274,0.3269,0.3265,0,0.1835,0.1875,0.2054,0.2116,0.2201,0.2338,0.2423,0.2622,0.2716,0.2996,0.305,0.3256,0.3363,0.3359,0.3474,0.3494,0.3449,0.3428,0.3299,0.3231,0.3205,0.3199,0.3193,0.3257,0.3255,0.3254,0.3252,0,0.1746,0.1835,0.1914,0.2032,0.2139,0.2229,0.2381,0.2426,0.2657,0.2855,0.2961,0.3028,0.3162,0.3225,0.3276,0.3279,0.3421,0.3368,0.3378,0.3257,0.3196,0.3174,0.3174,0.3233,0.3236,0.3237,0.3239,0,0.169,0.1718,0.1837,0.1926,0.2047,0.2095,0.2184,0.2294,0.2401,0.2702,0.273,0.2943,0.3132,0.3116,0.3162,0.3151,0.3084,0.2961,0.2991,0.3013,0.2866,0.2745,0.2638,0,0,0,0,0,0.1616,0.1637,0.1713,0.1804,0.1917,0.1983,0.2142,0.2237,0.2456,0.2459,0.2585,0.2689,0.2761,0.2869,0.28,0.3035,0.3096,0.294,0.2969,0.3126,0.3148,0.2998,0,0,0,0,0,0,0.1572,0.1641,0.1663,0.1681,0.1718,0.1813,0.1905,0.205,0.2062,0.2296,0.2348,0.2522,0.2632,0.2775,0.275,0.278,0.2739,0.307,0.3063,0.3113,0.3133,0.3151,0.3004,0,0,0,0,0]},{"header":{"parameterUnit":"m.s-1","parameterCategory":2,"la1":30.2991,"la2":30.254,"lo1":-89.0895,"lo2":-89.0444,"dy":0.0017,"dx":0.0017,"nx":28,"ny":28,"refTime":"2023-11-17T09:00:00:Z","depth":"4","parameterNumber":3,"parameterNumberName":"V-component_of_CURRENTS"},"data":[0,0,0,0,0,0,0,0,0,0,0,0,0,0,0,0,0,0,0,0,0,0,0,0,0,0,0,0,0,0,0,0,0,0,0,0,0,0,0,0,0,0,0,0,0,0,0,0,0,0,0,0,0,0,0,0,0,0,0.0269,0.0268,0,0.0215,0.0214,0.0213,0.0182,0.0181,0.0181,0.0181,0.0111,0.011,0.0108,0,0,0,0,0,0,0,0,0,0,0,0,0,0.0284,0.0284,0.0269,0.0268,0.0267,0.0215,0.0214,0.0213,0.0182,0.0181,0.0181,0.0181,0.0112,0.011,0.0108,0,0,0,0,0,0,0,0,0,0,0,0,0,0.0259,0.0284,0.0269,0.0245,0.0243,0.0215,0.0214,0.0213,0.0182,0.0181,0.0181,0.0181,0.0113,0.011,0.0108,0.0095,0,0,0.01,0.0098,0,0,0,0,0,0,0,0,0.026,0.0258,0.0249,0.0247,0.0244,0.0205,0.0194,0.0173,0.0182,0.0205,0.0181,0.0181,0.0141,0.0136,0.0127,0.0092,0.0089,0.0099,0.0098,0.0097,0.0096,0,0,0,0,0,0,0,0.0262,0.026,0.0247,0.0249,0.0245,0.0217,0.0213,0.0189,0.0175,0.0203,0.02,0.0194,0.014,0.0129,0.0125,0.0088,0.0099,0.0097,0.0096,0.0095,0.0046,0.0046,0,0,0,0,0,0,0.0272,0.0262,0.0249,0.0246,0.0252,0.0217,0.0213,0.0217,0.0175,0.0168,0.0195,0.0193,0.0134,0.0128,0.0122,0.0124,0.0097,0.0094,0.0093,0.0046,0.0046,0.0046,0,0,0,0,0,0,0.0273,0.0272,0.0251,0.0252,0.0247,0.0217,0.0222,0.0217,0.0212,0.0169,0.0162,0.0196,0.0134,0.0126,0.0112,0.012,0.0093,0.0091,0.0045,0.0046,0.0046,0.0114,0,0,0,0,0,0,0.0274,0.0273,0.0283,0.0253,0.0248,0.0245,0.0222,0.0216,0.0208,0.0206,0.0168,0.0161,0.0133,0.0116,0.0109,0.0116,0.0089,0.0045,0.0046,0.0046,0.0112,0.0117,0.0122,0,0,0,0,0,0.0275,0.0292,0.0284,0.0282,0.0262,0.0246,0.0241,0.0217,0.0209,0.0212,0.0188,0.0163,0.0114,0.0115,0.0106,0.0112,0.0045,0.0045,0.0046,0.011,0.0116,0.0122,0,0,0,0,0,0,0.0305,0.0289,0.028,0.0292,0.0274,0.0241,0.0242,0.0225,0.0209,0.0209,0.0169,0.016,0.015,0.0122,0.0123,0.0099,0.0074,0.0073,0.0125,0.0131,0.0136,0.0155,0.0087,0,0,0,0,0,0.0316,0.0328,0.0301,0.0312,0.0305,0.0275,0.0267,0.0253,0.0231,0.0224,0.0196,0.0167,0.0145,0.0132,0.0108,0.0096,0.0058,0.0093,0.0098,0.0102,0.0112,0.0059,0.006,0.0048,0.0048,0.0048,0,0,0.0328,0.0325,0.0329,0.032,0.0304,0.0303,0.027,0.0265,0.0269,0.0219,0.0218,0.0186,0.0147,0.0135,0.0127,0.0113,0.0085,0.0103,0.0107,0.0115,0.006,0.0061,0.0062,0.0049,0.0049,0.0049,0,0,0.036,0.0358,0.0373,0.0364,0.0349,0.0332,0.0335,0.0306,0.0297,0.0289,0.0255,0.023,0.0196,0.0169,0.0151,0.0167,0.0115,0.0157,0.0196,0.0144,0.0145,0.0145,0.0099,0.0094,0.0157,0.0157,0.0157,0,0.0376,0.0394,0.0374,0.0385,0.0387,0.035,0.0365,0.035,0.0322,0.0319,0.0299,0.0247,0.0212,0.0196,0.0201,0.0179,0.0143,0.0179,0.0151,0.015,0.0149,0.0102,0.0096,0.016,0.016,0.016,0.0159,0,0.0411,0.0428,0.0437,0.0443,0.0442,0.045,0.0427,0.0425,0.0407,0.0385,0.0367,0.0315,0.0283,0.0264,0.0239,0.0218,0.0192,0.0166,0.0139,0.0155,0.0103,0.0096,0.0165,0.0164,0.0163,0.0162,0,0,0.0442,0.0459,0.0463,0.0483,0.0477,0.0483,0.0492,0.0486,0.0498,0.0455,0.0458,0.0407,0.0372,0.0349,0.0305,0.026,0.0217,0.0217,0.0213,0.0177,0.0106,0.0092,0.0082,0.0184,0.0183,0.0183,0.0073,0,0.0476,0.052,0.0516,0.0559,0.0578,0.0561,0.0576,0.0568,0.0549,0.054,0.0477,0.0463,0.0406,0.0395,0.0339,0.0252,0.0201,0.025,0.0091,0.0086,0.0077,0.0074,0.018,0.0067,0.0065,0.0064,0.0063,0,0.0508,0.0538,0.059,0.0629,0.0636,0.066,0.0685,0.0694,0.0667,0.065,0.061,0.0558,0.0495,0.0443,0.0293,0.0327,0.0227,0.015,0.0143,0.0104,0.0059,0.0046,0.0049,0.005,0.0051,0.0052,0.0053,0,0.0544,0.0588,0.0641,0.0653,0.0687,0.0719,0.0738,0.0733,0.0754,0.0725,0.0727,0.0631,0.0596,0.0456,0.0296,0.0293,0.0124,0.0093,-0.0015,-0.0018,-0.0003,-0.0002,-0.0015,-0.0015,-0.0015,-0.0015,-0.0014,0,0.0579,0.0622,0.0671,0.0702,0.0774,0.0778,0.0845,0.0844,0.0851,0.0883,0.0793,0.0784,0.0598,0.0478,0.0319,0.0132,0.0133,-0.0006,-0.0047,0.0028,0.0034,-0.0008,-0.0006,-0.0019,-0.0018,-0.0017,-0.0016,0,0.0607,0.0636,0.0705,0.0767,0.0797,0.0852,0.0929,0.0966,0.0966,0.1004,0.1001,0.0898,0.074,0.054,0.0312,0.0175,-0.0011,-0.008,0.0024,-0.001,-0.0125,-0.0118,-0.0211,-0.0212,-0.0213,-0.0214,-0.0215,0,0.0623,0.0665,0.0761,0.0814,0.0853,0.0936,0.0992,0.1024,0.1067,0.1073,0.109,0.0965,0.0868,0.0539,0.0317,0.0006,-0.0041,-0.0141,-0.0141,-0.0115,-0.0145,-0.0136,-0.0128,-0.0217,-0.0217,-0.0218,-0.0218,0,0.0657,0.0698,0.0754,0.0865,0.0946,0.1036,0.1122,0.1161,0.1198,0.1202,0.116,0.0995,0.0815,0.0548,0.0307,0.0082,-0.0079,-0.0154,-0.0154,-0.0155,-0.0123,-0.015,-0.0141,-0.0222,-0.0221,-0.0221,-0.0221,0,0.0684,0.0725,0.0805,0.0902,0.1007,0.1103,0.1149,0.1199,0.1239,0.1242,0.1227,0.1032,0.0923,0.0588,0.0366,0.0142,0.0079,-0.0,-0.0009,-0.0007,0.0079,0.015,0.0103,0,0,0,0,0,0.0699,0.0746,0.0834,0.094,0.1046,0.1114,0.1217,0.1252,0.1294,0.1274,0.1255,0.1087,0.0763,0.0623,0.0396,0.0324,0.0028,0.0048,-0.007,-0.0245,-0.024,-0.0176,0,0,0,0,0,0,0.0704,0.0786,0.0825,0.0956,0.1035,0.1156,0.1226,0.126,0.1249,0.1256,0.1087,0.102,0.0701,0.0892,0.0389,0.0322,0.0213,-0.0098,-0.0103,-0.0247,-0.0243,-0.0239,-0.0172,0,0,0,0,0]}]]